Starlink 31416

operational
NORAD ID: 59355 Int'l Des: 2024-060 Owner: SPXS Country: US Constellation: starlink
LEOCIRCULAR

关于 Starlink 31416

正在加载描述...

实时位置

正在加载3D地球...

即将过境

高度历史

Altitude vs Time

uPlot chart will show altitude changes over time

两行轨道根数

1 59355U 24060H 25259.05182600 .00000701 00000-0 34976-4 0 9995
2 59355 42.9992 166.1717 0002098 268.3118 91.7494 15.27593079 83352
Epoch: Sep 16, 2025 • Age: 20 hours

当前状态

高度 493.7 km
速度 7.62 km/s
星下点 -40.16°S, 141.14°E
发射日期 Mar 31, 2024
运行时间 1.4 years
类型 internet

技术详情

分类 Payload
质量 730.00 kg
干质量 700.00 kg
总质量 730.00 kg
长度 0.30 m
直径 4.10 m
跨度 29.00 m
形状 Box + pan
制造商 SPXS
平台类型 Starlink V2M
阶段状态 In Orbit
所有者/国家 SPXS/US

大型星座

Loading constellations...